Time,TemperatureF,DewpointF,PressureIn,WindDirection,WindDirectionDegrees,WindSpeedMPH,WindSpeedGustMPH,Humidity,HourlyPrecipIn,Conditions,Clouds,dailyrainin,SoftwareType,DateUTC
2013-02-17 00:02:00,25.0,22.0,29.67,North,360,1.0,-999.0,89,-99.99,,,-99.99,,2013-02-17 05:02:00,
2013-02-17 00:12:00,25.0,22.0,29.65,North,351,1.0,-999.0,89,-99.99,,,-99.99,,2013-02-17 05:12:00,
2013-02-17 00:22:00,25.0,22.0,29.65,North,351,1.0,-999.0,89,-99.99,,,-99.99,,2013-02-17 05:22:00,
2013-02-17 00:33:00,25.0,21.0,29.65,NNW,335,1.0,-999.0,85,-99.99,,,-99.99,,2013-02-17 05:33:00,
2013-02-17 00:42:00,25.0,21.0,29.65,NNW,335,1.0,-999.0,85,-99.99,,,-99.99,,2013-02-17 05:42:00,
2013-02-17 00:52:00,25.0,21.0,29.64,North,11,1.0,-999.0,83,-99.99,,,-99.99,,2013-02-17 05:52:00,
2013-02-17 01:02:00,25.0,20.0,29.62,NE,36,1.0,-999.0,81,-99.99,,,-99.99,,2013-02-17 06:02:00,
2013-02-17 01:11:00,25.0,20.0,29.62,NE,36,1.0,-999.0,81,-99.99,,,-99.99,,2013-02-17 06:11:00,
2013-02-17 01:21:00,24.0,17.0,29.60,North,5,2.0,-999.0,74,-99.99,,,-99.99,,2013-02-17 06:21:00,
2013-02-17 01:32:00,24.0,16.0,29.59,North,360,2.0,-999.0,71,-99.99,,,-99.99,,2013-02-17 06:32:00,
2013-02-17 01:42:00,24.0,16.0,29.59,North,360,2.0,-999.0,71,-99.99,,,-99.99,,2013-02-17 06:42:00,
2013-02-17 01:52:00,24.0,15.0,29.59,NNW,342,2.0,-999.0,67,-99.99,,,-99.99,,2013-02-17 06:52:00,
2013-02-17 02:01:00,24.0,14.0,29.59,East,98,2.0,-999.0,66,-99.99,,,-99.99,,2013-02-17 07:01:00,
2013-02-17 02:11:00,24.0,13.0,29.59,NNE,13,2.0,-999.0,61,-99.99,,,-99.99,,2013-02-17 07:11:00,
2013-02-17 02:21:00,24.0,13.0,29.59,NNE,13,2.0,-999.0,61,-99.99,,,-99.99,,2013-02-17 07:21:00,
2013-02-17 02:32:00,24.0,12.0,29.57,East,85,2.0,-999.0,60,-99.99,,,-99.99,,2013-02-17 07:32:00,
2013-02-17 02:42:00,24.0,12.0,29.57,East,85,2.0,-999.0,60,-99.99,,,-99.99,,2013-02-17 07:42:00,
2013-02-17 02:52:00,24.0,12.0,29.55,North,5,2.0,-999.0,59,-99.99,,,-99.99,,2013-02-17 07:52:00,
2013-02-17 03:01:00,24.0,11.0,29.54,NNW,327,2.0,-999.0,57,-99.99,,,-99.99,,2013-02-17 08:01:00,
2013-02-17 03:11:00,24.0,11.0,29.54,NNW,327,2.0,-999.0,57,-99.99,,,-99.99,,2013-02-17 08:11:00,
2013-02-17 03:21:00,24.0,11.0,29.53,NNE,23,2.0,-999.0,58,-99.99,,,-99.99,,2013-02-17 08:21:00,
2013-02-17 03:32:00,24.0,11.0,29.54,ENE,59,3.0,-999.0,56,-99.99,,,-99.99,,2013-02-17 08:32:00,
2013-02-17 03:42:00,24.0,11.0,29.54,ENE,59,3.0,-999.0,56,-99.99,,,-99.99,,2013-02-17 08:42:00,
2013-02-17 03:52:00,24.0,11.0,29.52,NNE,15,3.0,-999.0,58,-99.99,,,-99.99,,2013-02-17 08:52:00,
2013-02-17 04:02:00,24.0,11.0,29.50,North,9,3.0,-999.0,57,-99.99,,,-99.99,,2013-02-17 09:02:00,
2013-02-17 04:11:00,24.0,11.0,29.50,North,9,3.0,-999.0,57,-99.99,,,-99.99,,2013-02-17 09:11:00,
2013-02-17 04:21:00,24.0,12.0,29.49,North,5,1.0,-999.0,60,-99.99,,,-99.99,,2013-02-17 09:21:00,
2013-02-17 04:31:00,23.0,12.0,29.49,North,9,3.0,-999.0,62,-99.99,,,-99.99,,2013-02-17 09:31:00,
2013-02-17 04:42:00,23.0,12.0,29.49,North,9,3.0,-999.0,62,-99.99,,,-99.99,,2013-02-17 09:42:00,
2013-02-17 04:52:00,23.0,12.0,29.48,North,355,2.0,-999.0,62,-99.99,,,-99.99,,2013-02-17 09:52:00,
2013-02-17 05:01:00,23.0,12.0,29.46,NNE,14,3.0,-999.0,61,-99.99,,,-99.99,,2013-02-17 10:01:00,
2013-02-17 05:11:00,23.0,12.0,29.46,NNE,14,3.0,-999.0,61,-99.99,,,-99.99,,2013-02-17 10:11:00,
2013-02-17 05:21:00,22.0,11.0,29.44,North,360,2.0,-999.0,63,-99.99,,,-99.99,,2013-02-17 10:21:00,
2013-02-17 05:32:00,22.0,12.0,29.42,NNW,348,4.0,-999.0,64,-99.99,,,-99.99,,2013-02-17 10:32:00,
2013-02-17 05:42:00,22.0,12.0,29.42,NNW,348,4.0,-999.0,64,-99.99,,,-99.99,,2013-02-17 10:42:00,
2013-02-17 05:52:00,22.0,13.0,29.41,North,5,3.0,-999.0,68,-99.99,,,-99.99,,2013-02-17 10:52:00,
2013-02-17 06:01:00,22.0,12.0,29.41,North,355,3.0,-999.0,66,-99.99,,,-99.99,,2013-02-17 11:01:00,
2013-02-17 06:11:00,22.0,12.0,29.41,North,355,3.0,-999.0,66,-99.99,,,-99.99,,2013-02-17 11:11:00,
2013-02-17 06:22:00,22.0,12.0,29.40,NE,38,4.0,-999.0,66,-99.99,,,-99.99,,2013-02-17 11:22:00,
2013-02-17 06:32:00,22.0,12.0,29.39,NNW,340,4.0,-999.0,66,-99.99,,,-99.99,,2013-02-17 11:32:00,
2013-02-17 06:42:00,22.0,12.0,29.39,NNW,340,4.0,-999.0,66,-99.99,,,-99.99,,2013-02-17 11:42:00,
2013-02-17 06:53:00,22.0,13.0,29.35,NNE,28,3.0,-999.0,67,-99.99,,,-99.99,,2013-02-17 11:53:00,
2013-02-17 07:03:00,22.0,13.0,29.35,NNE,28,3.0,-999.0,67,-99.99,,,-99.99,,2013-02-17 12:03:00,
2013-02-17 07:11:00,22.0,13.0,29.35,NNE,28,3.0,-999.0,67,-99.99,,,-99.99,,2013-02-17 12:11:00,
2013-02-17 07:22:00,21.0,13.0,29.33,NE,34,5.0,-999.0,71,-99.99,,,-99.99,,2013-02-17 12:22:00,
2013-02-17 07:32:00,21.0,14.0,29.31,North,360,4.0,-999.0,75,-99.99,,,-99.99,,2013-02-17 12:32:00,
2013-02-17 07:42:00,21.0,14.0,29.31,North,360,4.0,-999.0,75,-99.99,,,-99.99,,2013-02-17 12:42:00,
2013-02-17 07:52:00,20.0,14.0,29.30,NE,47,4.0,-999.0,78,-99.99,,,-99.99,,2013-02-17 12:52:00,
2013-02-17 08:02:00,20.0,14.0,29.30,North,11,4.0,-999.0,78,-99.99,,,-99.99,,2013-02-17 13:02:00,
2013-02-17 08:12:00,20.0,14.0,29.30,North,11,4.0,-999.0,78,-99.99,,,-99.99,,2013-02-17 13:12:00,
2013-02-17 08:22:00,21.0,15.0,29.28,NNE,25,4.0,-999.0,78,-99.99,,,-99.99,,2013-02-17 13:22:00,
2013-02-17 08:32:00,21.0,16.0,29.27,NNE,13,3.0,-999.0,79,-99.99,,,-99.99,,2013-02-17 13:32:00,
2013-02-17 08:42:00,21.0,16.0,29.27,NNE,13,3.0,-999.0,79,-99.99,,,-99.99,,2013-02-17 13:42:00,
2013-02-17 08:52:00,21.0,16.0,29.25,North,349,3.0,-999.0,80,-99.99,,,-99.99,,2013-02-17 13:52:00,
2013-02-17 09:01:00,21.0,16.0,29.24,North,5,4.0,-999.0,79,-99.99,,,-99.99,,2013-02-17 14:01:00,
2013-02-17 09:11:00,21.0,16.0,29.24,North,5,4.0,-999.0,79,-99.99,,,-99.99,,2013-02-17 14:11:00,
2013-02-17 09:22:00,21.0,16.0,29.23,North,355,3.0,-999.0,79,-99.99,,,-99.99,,2013-02-17 14:22:00,
2013-02-17 09:32:00,21.0,15.0,29.21,NW,322,3.0,-999.0,78,-99.99,,,-99.99,,2013-02-17 14:32:00,
2013-02-17 09:42:00,21.0,15.0,29.21,NW,322,3.0,-999.0,78,-99.99,,,-99.99,,2013-02-17 14:42:00,
2013-02-17 09:53:00,21.0,15.0,29.20,North,11,4.0,-999.0,77,-99.99,,,-99.99,,2013-02-17 14:53:00,
2013-02-17 10:02:00,21.0,16.0,29.18,NE,50,4.0,-999.0,79,-99.99,,,-99.99,,2013-02-17 15:02:00,
2013-02-17 10:11:00,21.0,16.0,29.18,NE,50,4.0,-999.0,79,-99.99,,,-99.99,,2013-02-17 15:11:00,
2013-02-17 10:21:00,21.0,16.0,29.17,NNE,12,4.0,-999.0,82,-99.99,,,-99.99,,2013-02-17 15:21:00,
2013-02-17 10:32:00,21.0,17.0,29.15,North,360,4.0,-999.0,83,-99.99,,,-99.99,,2013-02-17 15:32:00,
2013-02-17 10:42:00,21.0,17.0,29.15,North,360,4.0,-999.0,83,-99.99,,,-99.99,,2013-02-17 15:42:00,
2013-02-17 10:52:00,21.0,16.0,29.15,North,5,4.0,-999.0,82,-99.99,,,-99.99,,2013-02-17 15:52:00,
2013-02-17 11:01:00,20.0,16.0,29.15,NNW,340,5.0,-999.0,86,-99.99,,,-99.99,,2013-02-17 16:01:00,
2013-02-17 11:12:00,20.0,16.0,29.15,NNW,340,5.0,-999.0,86,-99.99,,,-99.99,,2013-02-17 16:12:00,
2013-02-17 11:22:00,21.0,17.0,29.14,North,355,6.0,-999.0,84,-99.99,,,-99.99,,2013-02-17 16:22:00,
2013-02-17 11:32:00,21.0,17.0,29.12,North,5,4.0,-999.0,84,-99.99,,,-99.99,,2013-02-17 16:32:00,
2013-02-17 11:42:00,21.0,17.0,29.12,North,5,4.0,-999.0,84,-99.99,,,-99.99,,2013-02-17 16:42:00,
2013-02-17 11:52:00,22.0,18.0,29.09,NNE,16,5.0,-999.0,85,-99.99,,,-99.99,,2013-02-17 16:52:00,
2013-02-17 12:02:00,22.0,19.0,29.08,North,355,5.0,-999.0,87,-99.99,,,-99.99,,2013-02-17 17:02:00,
2013-02-17 12:11:00,22.0,19.0,29.08,North,355,5.0,-999.0,87,-99.99,,,-99.99,,2013-02-17 17:11:00,
2013-02-17 12:21:00,22.0,18.0,29.07,North,351,5.0,-999.0,86,-99.99,,,-99.99,,2013-02-17 17:21:00,
2013-02-17 12:32:00,22.0,18.0,29.07,North,351,5.0,-999.0,86,-99.99,,,-99.99,,2013-02-17 17:32:00,
2013-02-17 12:42:00,22.0,18.0,29.07,North,351,5.0,-999.0,86,-99.99,,,-99.99,,2013-02-17 17:42:00,
2013-02-17 12:52:00,22.0,18.0,29.05,NE,34,4.0,-999.0,84,-99.99,,,-99.99,,2013-02-17 17:52:00,
2013-02-17 13:02:00,22.0,18.0,29.04,NNW,338,4.0,-999.0,84,-99.99,,,-99.99,,2013-02-17 18:02:00,
2013-02-17 13:11:00,22.0,18.0,29.04,NNW,338,4.0,-999.0,84,-99.99,,,-99.99,,2013-02-17 18:11:00,
2013-02-17 13:22:00,22.0,18.0,29.04,NNW,338,4.0,-999.0,84,-99.99,,,-99.99,,2013-02-17 18:22:00,
2013-02-17 13:33:00,23.0,18.0,29.03,North,11,5.0,-999.0,80,-99.99,,,-99.99,,2013-02-17 18:33:00,
2013-02-17 13:42:00,23.0,18.0,29.03,North,11,5.0,-999.0,80,-99.99,,,-99.99,,2013-02-17 18:42:00,
2013-02-17 13:52:00,23.0,18.0,29.03,North,11,5.0,-999.0,80,-99.99,,,-99.99,,2013-02-17 18:52:00,
2013-02-17 14:02:00,23.0,18.0,29.03,NNW,336,4.0,-999.0,81,-99.99,,,-99.99,,2013-02-17 19:02:00,
2013-02-17 14:11:00,23.0,18.0,29.03,NNW,336,4.0,-999.0,81,-99.99,,,-99.99,,2013-02-17 19:11:00,
2013-02-17 14:21:00,23.0,18.0,29.03,North,11,4.0,-999.0,82,-99.99,,,-99.99,,2013-02-17 19:21:00,
2013-02-17 14:32:00,22.0,17.0,29.03,North,11,3.0,-999.0,81,-99.99,,,-99.99,,2013-02-17 19:32:00,
2013-02-17 14:42:00,22.0,17.0,29.03,North,11,3.0,-999.0,81,-99.99,,,-99.99,,2013-02-17 19:42:00,
2013-02-17 14:52:00,22.0,17.0,29.03,WSW,254,5.0,-999.0,82,-99.99,,,-99.99,,2013-02-17 19:52:00,
2013-02-17 15:02:00,22.0,17.0,29.03,WSW,254,5.0,-999.0,82,-99.99,,,-99.99,,2013-02-17 20:02:00,
2013-02-17 15:11:00,22.0,17.0,29.03,WSW,254,5.0,-999.0,82,-99.99,,,-99.99,,2013-02-17 20:11:00,
2013-02-17 15:21:00,22.0,17.0,29.04,NW,317,4.0,-999.0,81,-99.99,,,-99.99,,2013-02-17 20:21:00,
2013-02-17 15:32:00,22.0,17.0,29.05,SW,227,4.0,-999.0,80,-99.99,,,-99.99,,2013-02-17 20:32:00,
2013-02-17 15:43:00,22.0,17.0,29.05,SW,227,4.0,-999.0,80,-99.99,,,-99.99,,2013-02-17 20:43:00,
2013-02-17 15:52:00,22.0,17.0,29.05,North,11,3.0,-999.0,80,-99.99,,,-99.99,,2013-02-17 20:52:00,
2013-02-17 16:02:00,21.0,16.0,29.06,North,355,3.0,-999.0,81,-99.99,,,-99.99,,2013-02-17 21:02:00,
2013-02-17 16:11:00,21.0,16.0,29.06,North,355,3.0,-999.0,81,-99.99,,,-99.99,,2013-02-17 21:11:00,
2013-02-17 16:21:00,21.0,16.0,29.06,North,355,3.0,-999.0,81,-99.99,,,-99.99,,2013-02-17 21:21:00,
2013-02-17 16:32:00,20.0,15.0,29.07,North,9,3.0,-999.0,82,-99.99,,,-99.99,,2013-02-17 21:32:00,
2013-02-17 16:42:00,20.0,15.0,29.07,North,9,3.0,-999.0,82,-99.99,,,-99.99,,2013-02-17 21:42:00,
2013-02-17 16:52:00,19.0,14.0,29.07,NNE,15,3.0,-999.0,81,-99.99,,,-99.99,,2013-02-17 21:52:00,
2013-02-17 17:01:00,19.0,14.0,29.08,ENE,68,4.0,-999.0,79,-99.99,,,-99.99,,2013-02-17 22:01:00,
2013-02-17 17:12:00,19.0,14.0,29.08,ENE,68,4.0,-999.0,79,-99.99,,,-99.99,,2013-02-17 22:12:00,
2013-02-17 17:22:00,18.0,13.0,29.09,South,177,3.0,-999.0,79,-99.99,,,-99.99,,2013-02-17 22:22:00,
2013-02-17 17:32:00,18.0,12.0,29.10,NNW,347,3.0,-999.0,78,-99.99,,,-99.99,,2013-02-17 22:32:00,
2013-02-17 17:42:00,18.0,12.0,29.10,NNW,347,3.0,-999.0,78,-99.99,,,-99.99,,2013-02-17 22:42:00,
2013-02-17 17:52:00,18.0,11.0,29.11,NNW,342,5.0,-999.0,73,-99.99,,,-99.99,,2013-02-17 22:52:00,
2013-02-17 18:02:00,18.0,10.0,29.12,NW,323,4.0,-999.0,69,-99.99,,,-99.99,,2013-02-17 23:02:00,
2013-02-17 18:11:00,18.0,10.0,29.12,NW,323,4.0,-999.0,69,-99.99,,,-99.99,,2013-02-17 23:11:00,
2013-02-17 18:21:00,17.0,8.0,29.13,NNE,17,5.0,-999.0,66,-99.99,,,-99.99,,2013-02-17 23:21:00,
2013-02-17 18:32:00,18.0,8.0,29.15,NW,314,3.0,-999.0,64,-99.99,,,-99.99,,2013-02-17 23:32:00,
2013-02-17 18:42:00,18.0,8.0,29.15,NW,314,3.0,-999.0,64,-99.99,,,-99.99,,2013-02-17 23:42:00,
2013-02-17 18:52:00,18.0,8.0,29.15,North,355,3.0,-999.0,64,-99.99,,,-99.99,,2013-02-17 23:52:00,
2013-02-17 19:02:00,18.0,7.0,29.16,NW,323,4.0,-999.0,61,-99.99,,,-99.99,,2013-02-18 00:02:00,
2013-02-17 19:12:00,18.0,7.0,29.16,NW,323,4.0,-999.0,61,-99.99,,,-99.99,,2013-02-18 00:12:00,
2013-02-17 19:22:00,18.0,6.0,29.17,North,5,5.0,-999.0,60,-99.99,,,-99.99,,2013-02-18 00:22:00,
2013-02-17 19:32:00,18.0,6.0,29.18,WNW,296,4.0,-999.0,59,-99.99,,,-99.99,,2013-02-18 00:32:00,
2013-02-17 19:42:00,18.0,6.0,29.18,WNW,296,4.0,-999.0,59,-99.99,,,-99.99,,2013-02-18 00:42:00,
2013-02-17 19:52:00,18.0,6.0,29.19,NNW,330,3.0,-999.0,60,-99.99,,,-99.99,,2013-02-18 00:52:00,
2013-02-17 20:01:00,18.0,6.0,29.19,WNW,303,3.0,-999.0,60,-99.99,,,-99.99,,2013-02-18 01:01:00,
2013-02-17 20:12:00,18.0,6.0,29.19,WNW,303,3.0,-999.0,60,-99.99,,,-99.99,,2013-02-18 01:12:00,
2013-02-17 20:21:00,18.0,6.0,29.20,NNE,18,3.0,-999.0,60,-99.99,,,-99.99,,2013-02-18 01:21:00,
2013-02-17 20:32:00,18.0,6.0,29.21,WNW,291,4.0,-999.0,58,-99.99,,,-99.99,,2013-02-18 01:32:00,
2013-02-17 20:42:00,18.0,6.0,29.21,WNW,291,4.0,-999.0,58,-99.99,,,-99.99,,2013-02-18 01:42:00,
2013-02-17 20:51:00,18.0,5.0,29.21,NE,51,4.0,-999.0,57,-99.99,,,-99.99,,2013-02-18 01:51:00,
2013-02-17 21:02:00,18.0,5.0,29.22,ENE,64,4.0,-999.0,57,-99.99,,,-99.99,,2013-02-18 02:02:00,
2013-02-17 21:11:00,18.0,5.0,29.22,ENE,64,4.0,-999.0,57,-99.99,,,-99.99,,2013-02-18 02:11:00,
2013-02-17 21:22:00,18.0,5.0,29.23,NNW,329,4.0,-999.0,57,-99.99,,,-99.99,,2013-02-18 02:22:00,
2013-02-17 21:32:00,19.0,6.0,29.23,WSW,255,4.0,-999.0,57,-99.99,,,-99.99,,2013-02-18 02:32:00,
2013-02-17 21:42:00,19.0,6.0,29.23,WSW,255,4.0,-999.0,57,-99.99,,,-99.99,,2013-02-18 02:42:00,
2013-02-17 21:52:00,19.0,6.0,29.23,NE,44,3.0,-999.0,57,-99.99,,,-99.99,,2013-02-18 02:52:00,
2013-02-17 22:02:00,19.0,6.0,29.24,North,355,3.0,-999.0,55,-99.99,,,-99.99,,2013-02-18 03:02:00,
2013-02-17 22:11:00,19.0,6.0,29.24,North,355,3.0,-999.0,55,-99.99,,,-99.99,,2013-02-18 03:11:00,
2013-02-17 22:21:00,19.0,5.0,29.24,NW,320,5.0,-999.0,54,-99.99,,,-99.99,,2013-02-18 03:21:00,
2013-02-17 22:32:00,19.0,6.0,29.26,NNW,342,4.0,-999.0,55,-99.99,,,-99.99,,2013-02-18 03:32:00,
2013-02-17 22:42:00,19.0,6.0,29.26,NNW,342,4.0,-999.0,55,-99.99,,,-99.99,,2013-02-18 03:42:00,
2013-02-17 22:51:00,19.0,5.0,29.27,NNE,22,3.0,-999.0,54,-99.99,,,-99.99,,2013-02-18 03:51:00,
2013-02-17 23:01:00,19.0,6.0,29.27,NNW,343,3.0,-999.0,55,-99.99,,,-99.99,,2013-02-18 04:01:00,
2013-02-17 23:11:00,19.0,6.0,29.27,NNW,343,3.0,-999.0,55,-99.99,,,-99.99,,2013-02-18 04:11:00,
2013-02-17 23:21:00,19.0,5.0,29.28,NNW,344,3.0,-999.0,54,-99.99,,,-99.99,,2013-02-18 04:21:00,
2013-02-17 23:32:00,19.0,5.0,29.29,North,5,4.0,-999.0,54,-99.99,,,-99.99,,2013-02-18 04:32:00,
2013-02-17 23:42:00,19.0,5.0,29.29,North,5,4.0,-999.0,54,-99.99,,,-99.99,,2013-02-18 04:42:00,
2013-02-17 23:52:00,19.0,5.0,29.30,North,5,4.0,-999.0,54,-99.99,,,-99.99,,2013-02-18 04:52:00,